Powrót do katalogu

STARLINK-11643

AktywnyŁącznośćVLEO
NORAD 63192·PAYLOAD·🇺🇸 United States

Wystrzelony Mar 13, 2025 z Cape Canaveral Space Force Station

Loading…

Następne Przeloty (najbliższe 24 godziny)

TLE

ŚwieżeSource: CelesTrak SupGP

Epoka: Sep 15, 2026, 03:57 UTC

1 63192C 25048K   26258.16506944 -.00039700  00000+0 -30814-3 0  2585
2 63192  43.0005 257.8102 0001496 254.9799 356.3631 15.70874126    14

Śledź STARLINK-11643 w czasie rzeczywistym z AllMySat

Download on the App Store